EHI
3 3 4 5 6 5 5 4 3 2 1 3 5 5 5 5 3 2 3 1 0 0 0 0 0 0 0 0 0 0 0 0 0 0 0 0 0 0
2 2 3 4 5 6 5 5 4 3 2 2 4 5 4 3 2 2 2 1 0 0 0 0 0 0 0 0 0 0 0 0 0 0 0 0 0 0
1 1 1 2 4 5 4 4 4 4 2 2 3 4 4 2 2 3 2 0 0 0 0 0 0 0 0 0 0 0 0 0 0 0 0 0 0 0
1 0 0 1 2 2 3 3 3 3 3 3 3 4 4 4 4 3 1 0 0 0 0 0 0 0 0 0 0 0 0 0 0 0 0 0 0 0
1 0 0 0 1 1 2 3 3 3 3 3 3 3 3 4 5 3 1 1 1 0 0 0 0 0 0 0 0 0 0 0 0 0 0 0 0 0
0 0 0 1 1 1 1 1 2 3 3 3 3 3 3 3 4 3 2 2 1 0 0 0 0 0 0 0 0 0 0 0 0 0 0 0 0 0
0 0 0 1 1 1 0 0 1 2 3 3 3 3 2 2 1 1 1 1 1 0 0 0 0 0 0 0 0 0 0 0 0 0 0 0 0 0
0 0 0 0 0 0 0 0 0 1 1 2 2 2 1 1 0 0 0 0 0 0 0 0 0 0 0 0 0 0 0 0 0 0 0 0 0 0
0 0 0 0 0 0 0 1 1 0 0 1 2 1 0 0 0 0 0 0 0 0 0 0 0 0 0 0 0 0 0 0 0 0 0 0 0 0
1 0 0 0 0 0 1 2 2 1 0 1 1 1 0 0 0 0 0 0 1 0 0 0 0 0 0 0 0 0 0 0 0 0 0 0 0 0
2 1 0 0 0 0 1 2 2 1 0 0 0 0 0 0 0 0 0 0 0 0 0 0 0 0 0 0 0 0 0 0 0 0 0 0 0 0
2 1 0 0 0 0 0 1 1 0 0 0 1 1 1 1 1 1 0 0 0 0 0 0 0 0 0 0 0 0 0 0 0 0 0 0 0 0
1 0 0 0 0 0 0 0 0 0 0 1 2 2 2 2 3 2 1 1 1 1 0 0 0 0 0 0 0 0 0 0 0 0 0 0 0 0
0 0 0 0 0 0 0 0 0 0 0 1 2 2 2 3 4 4 3 2 2 1 0 0 0 0 0 0 0 0 0 0 0 0 0 0 0 0
0 0 0 0 0 0 0 0 0 0 0 0 1 1 1 1 3 4 4 3 3 1 0 0 0 0 0 0 0 0 0 0 0 0 0 0 0 0
0 0 0 0 1 1 1 1 1 0 0 0 0 0 0 1 2 3 3 2 2 1 0 0 0 0 0 0 0 0 0 0 0 0 0 0 0 0
0 0 0 0 1 2 2 2 2 1 1 0 0 0 0 0 1 1 1 1 1 0 0 0 0 0 0 0 0 0 0 0 0 0 0 0 0 0
0 0 0 0 1 1 2 2 2 2 2 1 0 0 0 0 0 0 0 0 0 0 0 0 0 0 0 0 0 0 0 0 0 0 0 0 0 0
0 0 0 0 0 0 1 1 1 1 2 1 1 1 2 1 1 0 0 0 0 0 0 0 0 0 0 0 0 0 0 0 0 0 0 0 0 0
0 0 0 0 0 0 1 1 0 0 1 1 2 2 3 3 2 1 0 0 0 0 0 0 0 0 0 0 0 0 0 0 0 0 0 0 0 0
0 0 0 0 0 0 1 1 0 0 1 1 1 1 2 2 2 1 0 0 0 0 0 0 0 0 0 0 0 0 0 0 0 0 0 0 0 0
0 0 0 0 0 0 1 1 0 0 1 1 1 1 1 2 1 0 0 0 0 0 0 0 0 0 0 0 0 0 0 0 0 0 0 0 0 0
0 0 0 0 0 0 0 0 0 0 1 1 1 2 2 2 2 1 0 0 0 0 0 0 0 0 0 0 0 0 0 0 0 0 0 0 0 0
Wind_Speed
3 3 3 3 3 3 3 3 3 4 4 3 2 2 2 2 3 4 4 8 10 10 10 9 9 9 10 10 10 10 9 8 8 9 10 10 10 10
2 2 3 3 3 3 3 3 3 3 4 3 3 2 2 3 4 3 4 6 9 9 10 10 10 9 9 10 10 9 9 8 9 9 10 10 10 10
3 3 3 3 3 3 2 2 2 2 3 4 2 2 3 3 3 3 4 4 5 9 10 11 11 11 10 9 9 9 9 8 9 9 9 9 9 10
3 3 4 3 3 3 2 2 2 2 3 4 4 3 3 3 3 4 3 3 3 6 9 10 10 11 11 10 10 9 9 8 8 9 9 9 9 9
2 2 3 3 4 3 3 3 2 3 2 3 4 2 2 2 2 2 2 2 3 4 6 7 9 10 10 10 10 10 9 9 9 9 9 9 9 10
2 2 2 2 3 4 3 3 3 3 3 3 3 2 2 2 1 1 1 1 1 2 2 3 5 7 9 10 11 10 10 10 9 9 9 9 9 9
3 3 2 2 3 3 3 3 3 2 2 3 3 2 2 2 1 1 1 1 2 1 1 2 2 3 5 8 9 10 11 10 10 10 10 9 9 9
4 4 3 2 3 3 4 3 3 3 3 2 3 2 2 2 2 2 2 2 2 1 1 2 2 2 3 4 8 11 12 11 11 11 10 10 10 9
3 4 5 4 4 4 3 3 3 4 4 3 3 4 3 3 2 2 3 3 3 3 2 3 3 3 4 4 8 11 12 12 11 11 11 11 10 10
3 3 3 3 5 5 4 4 3 2 2 2 2 3 4 3 2 3 3 3 3 3 2 3 3 3 4 3 7 10 11 11 11 11 10 11 11 10
2 2 2 2 3 4 3 4 4 3 3 3 4 4 5 5 4 2 3 3 3 3 2 2 3 3 3 3 4 9 10 11 11 11 11 11 11 10
2 1 2 2 2 3 3 3 4 4 4 4 4 4 4 4 4 3 3 3 3 3 3 2 2 2 3 2 2 3 5 7 10 11 11 11 10 6
3 2 1 1 2 4 4 4 5 5 4 4 3 3 3 2 2 3 3 3 3 4 3 2 2 2 2 3 2 2 3 3 4 6 9 10 11 9
4 3 2 3 4 5 5 5 6 5 3 3 3 3 3 3 3 3 3 3 4 4 4 3 2 2 3 3 3 2 2 2 3 4 4 7 9 11
4 6 7 7 6 5 7 7 5 2 2 3 3 3 3 3 3 3 3 3 4 4 3 2 2 2 2 3 3 2 2 2 2 2 3 4 5 5
4 7 8 8 7 6 4 3 3 2 2 3 3 3 3 2 2 2 2 2 2 2 2 2 2 2 2 3 3 3 2 2 2 2 3 3 3 4
5 4 3 2 2 2 2 2 2 2 2 3 3 3 3 2 2 2 2 2 2 2 2 1 2 2 2 3 3 3 2 2 2 2 2 3 3 3
3 3 3 3 3 2 2 2 2 2 2 2 2 2 2 2 2 2 2 2 3 3 2 2 1 1 2 2 3 3 2 2 2 2 2 3 4 3
2 3 3 2 3 3 3 3 2 2 2 2 2 2 2 2 2 2 2 2 3 3 2 2 1 1 2 3 3 3 3 3 2 2 2 3 3 3
2 3 3 2 2 2 2 3 3 3 2 3 2 2 2 2 3 3 2 2 3 3 3 2 2 2 2 3 3 3 3 3 3 3 2 2 2 2
3 2 2 2 2 2 2 2 2 2 2 2 2 3 3 3 3 3 3 3 3 3 3 3 3 3 2 1 2 2 2 3 3 3 2 2 2 2
3 3 2 2 2 2 2 2 2 2 3 3 3 3 3 3 3 3 3 3 3 3 3 2 2 1 1 2 2 2 2 2 3 3 3 3 2 2
2 2 2 2 2 2 3 3 4 3 3 4 4 4 4 3 3 3 3 3 3 3 3 2 1 1 1 2 2 2 2 2 2 2 2 2 3 4
Wind_Direction
291 292 289 288 290 285 276 264 262 276 277 268 266 254 246 221 197 210 203 198 201 204 206 213 219 223 226 227 228 224 221 224 226 227 224 227 227 229
281 288 297 299 302 293 285 269 255 258 271 275 265 261 277 266 226 225 224 212 211 206 208 213 217 217 220 220 219 218 217 221 224 223 222 224 227 229
309 315 308 305 310 306 295 285 271 261 270 282 282 271 260 256 244 229 226 215 212 205 209 212 214 211 213 214 213 213 214 216 221 224 224 226 229 232
319 326 323 320 318 308 303 298 286 275 268 280 282 269 256 251 239 229 243 238 216 212 211 210 210 210 209 209 210 212 212 212 218 222 224 227 231 235
315 324 328 336 334 325 313 307 301 300 292 286 285 289 280 265 250 260 261 264 239 225 213 211 212 214 211 209 211 213 213 213 218 221 224 228 231 233
303 308 332 355 345 330 324 324 318 315 316 308 290 295 298 298 279 272 308 296 274 255 247 227 222 218 216 214 214 213 212 213 217 221 224 228 229 229
336 328 347 2 353 335 330 334 327 320 319 316 304 314 322 327 317 304 309 294 285 262 256 250 228 220 219 224 222 217 213 212 216 221 224 226 227 227
342 335 324 338 329 306 301 302 303 293 300 306 313 318 313 312 314 307 308 296 288 259 249 275 249 238 231 221 216 214 213 215 219 222 223 225 226 227
329 324 322 341 343 330 320 302 289 278 261 269 300 303 302 301 298 295 289 284 274 266 245 264 251 252 243 233 209 209 212 214 218 219 219 220 221 223
303 304 313 331 338 339 333 334 331 337 286 263 277 290 296 297 281 274 273 277 276 267 239 262 261 251 253 231 216 210 211 216 217 215 215 215 217 219
290 310 327 335 352 339 328 323 323 319 307 285 266 272 283 287 284 285 281 278 281 279 262 253 263 267 258 242 222 214 215 213 214 215 214 214 216 218
310 329 350 331 334 325 309 306 304 301 307 308 298 286 279 277 270 248 260 271 275 284 282 263 261 276 278 250 218 199 208 216 215 215 214 215 213 211
317 320 341 291 294 296 292 287 285 293 296 291 289 295 295 287 267 248 240 250 263 272 281 281 274 271 266 273 259 222 207 211 211 219 217 217 212 206
309 320 327 302 294 295 289 283 292 302 298 299 301 302 296 286 275 261 249 246 246 256 274 283 276 272 278 279 276 251 228 219 217 218 212 211 215 215
303 311 306 292 288 277 260 267 276 279 288 294 294 289 283 277 271 265 259 255 255 260 264 255 251 267 264 270 278 277 276 256 235 229 226 213 208 201
294 298 291 277 269 270 277 267 247 259 267 279 288 288 285 283 282 281 275 272 277 285 270 253 249 254 262 263 265 271 262 255 257 252 255 243 215 204
314 291 287 290 285 274 276 278 268 256 262 270 277 291 299 301 301 298 299 300 289 284 291 282 263 257 256 266 268 267 274 273 259 261 271 272 252 220
307 289 298 306 307 310 304 295 280 278 271 273 280 290 301 307 311 319 318 304 293 286 277 268 268 282 293 274 249 253 256 262 265 257 245 255 259 236
279 284 294 302 310 316 310 307 302 295 284 290 303 309 313 315 314 307 302 301 298 295 287 271 256 250 280 290 283 248 246 256 254 258 253 252 254 243
278 286 293 299 303 307 311 319 323 327 336 336 336 327 315 310 311 304 297 301 300 298 298 291 271 250 252 274 286 286 259 256 255 255 267 276 278 258
295 293 298 309 316 323 323 324 335 342 337 333 338 328 317 311 312 308 301 307 298 291 293 290 271 247 235 247 280 286 286 272 266 250 253 260 268 263
299 304 302 309 321 329 330 330 342 350 338 333 335 325 315 308 306 304 302 299 291 286 291 293 287 270 251 261 275 281 290 295 300 301 293 256 246 249
282 289 299 324 340 338 341 341 346 350 349 339 330 323 322 321 318 310 302 301 307 308 312 317 324 319 297 288 289 290 284 292 303 312 304 266 227 228